FW8575 Weather Reports


time (UTC)temp
C
wind
direction
speed
KPH
gust
KPH
rain 1hr
cm
rain 24hr
cm
rain mn
cm
humidity
%
barometer
mb
20260505010504 20 184 8.0 19.3 0.00 0.00 0.00 65 999.5
20260505010005 20 189 6.4 12.9 0.00 0.00 0.00 65 999.5
20260505005505 20 194 4.8 12.9 0.00 0.00 0.00 64 999.6
20260505005004 20 211 8.0 19.3 0.00 0.00 0.00 64 999.6
20260505004505 20 210 9.7 19.3 0.00 0.00 0.00 63 999.5
20260505004004 20 207 12.9 20.9 0.00 0.00 0.00 63 999.5
20260505003505 20 202 12.9 29.0 0.00 0.00 0.00 63 999.6
20260505003004 20 202 9.7 19.3 0.00 0.00 0.00 62 999.6
20260505002505 21 187 9.7 19.3 0.00 0.00 0.00 62 999.5
20260505002004 21 208 19.3 35.4 0.00 0.00 0.00 61 999.5
20260505001504 21 214 11.3 19.3 0.00 0.00 0.00 60 999.4
20260505001004 21 207 11.3 22.5 0.00 0.00 0.00 60 999.5
20260505000505 21 226 16.1 29.0 0.00 0.00 0.00 59 999.5
20260505000004 21 215 14.5 25.7 0.00 0.00 0.00 58 999.5
20260504235504 21 228 19.3 33.8 0.00 0.00 0.00 57 999.6
20260504235004 21 225 14.5 29.0 0.00 0.00 0.00 57 999.6
20260504234505 21 196 11.3 25.7 0.00 0.00 0.00 56 999.5
20260504234005 22 232 20.9 38.6 0.00 0.00 0.00 55 999.5
20260504233004 22 221 11.3 33.8 0.00 0.00 0.00 55 999.5
20260504232505 22 225 27.4 41.8 0.00 0.00 0.00 53 999.6
20260504231505 22 210 17.7 41.8 0.00 0.00 0.00 52 999.6
20260504230505 22 223 27.4 41.8 0.00 0.00 0.00 50 999.6
20260504230005 22 210 25.7 51.5 0.00 0.00 0.00 49 999.7
20260504225004 22 209 24.1 45.1 0.00 0.00 0.00 48 999.8
20260504224005 23 226 22.5 41.8 0.00 0.00 0.00 48 999.7
20260504222505 23 214 20.9 37.0 0.00 0.00 0.00 47 999.6
20260504221504 23 227 20.9 41.8 0.00 0.00 0.00 45 999.6
20260504221005 23 206 25.7 48.3 0.00 0.00 0.00 45 999.4
20260504220504 23 226 20.9 53.1 0.00 0.00 0.00 46 999.4
20260504220005 24 216 25.7 46.7 0.00 0.00 0.00 46 999.5
20260504215504 24 224 25.7 49.9 0.00 0.00 0.00 46 999.5
20260504214005 24 233 29.0 51.5 0.00 0.00 0.00 46 999.4
20260504213504 24 224 22.5 46.7 0.00 0.00 0.00 47 999.4
20260504213004 24 214 20.9 38.6 0.00 0.00 0.00 47 999.3
20260504212504 24 219 32.2 49.9 0.00 0.00 0.00 46 999.3
20260504212004 24 224 19.3 51.5 0.00 0.00 0.00 46 999.5
20260504211005 24 236 24.1 41.8 0.00 0.00 0.00 48 999.5
20260504210504 24 229 27.4 45.1 0.00 0.00 0.00 49 999.4
20260504210004 24 213 16.1 32.2 0.00 0.00 0.00 50 999.4
20260504205004 24 225 19.3 37.0 0.00 0.00 0.00 50 999.7
20260504204505 24 229 22.5 41.8 0.00 0.00 0.00 49 999.8
20260504203505 24 231 20.9 37.0 0.00 0.00 0.00 49 999.8
20260504203004 24 209 16.1 35.4 0.00 0.00 0.00 49 999.8
20260504202504 24 208 14.5 32.2 0.00 0.00 0.00 50 999.9
20260504202005 24 238 17.7 33.8 0.00 0.00 0.00 49 999.9
20260504201506 23 224 22.5 37.0 0.00 0.00 0.00 49 1000.1
20260504201004 24 236 16.1 35.4 0.00 0.00 0.00 50 1000.2
20260504200504 24 215 14.5 38.6 0.00 0.00 0.00 52 1000.3
20260504200004 23 209 14.5 33.8 0.00 0.00 0.00 52 1000.4
20260504195504 23 216 20.9 35.4 0.00 0.00 0.00 51 1000.4
20260504195004 23 227 22.5 35.4 0.00 0.00 0.00 51 1000.5
20260504194505 23 225 19.3 33.8 0.00 0.00 0.00 52 1000.5
20260504194004 23 214 20.9 33.8 0.00 0.00 0.00 52 1000.8
20260504193504 23 223 20.9 38.6 0.00 0.00 0.00 52 1000.9
20260504193004 23 214 19.3 35.4 0.00 0.00 0.00 52 1000.8
20260504192504 23 219 16.1 32.2 0.00 0.00 0.00 53 1000.8
20260504192004 22 219 14.5 24.1 0.00 0.00 0.00 54 1000.9
20260504191003 22 194 16.1 41.8 0.00 0.00 0.00 54 1000.8
20260504190004 23 237 22.5 41.8 0.00 0.00 0.00 53 1000.9
20260504185504 23 212 19.3 35.4 0.00 0.00 0.00 53 1001.0
20260504185004 23 223 20.9 32.2 0.00 0.00 0.00 53 1001.1
20260504184505 23 221 16.1 37.0 0.00 0.00 0.00 54 1001.0
20260504184004 23 211 17.7 37.0 0.00 0.00 0.00 55 1001.1
20260504183504 23 234 14.5 37.0 0.00 0.00 0.00 55 1001.3
20260504183004 22 198 20.9 41.8 0.00 0.00 0.00 54 1001.4
20260504182504 22 226 14.5 33.8 0.00 0.00 0.00 55 1001.4
20260504182003 22 213 17.7 41.8 0.00 0.00 0.00 55 1001.5
20260504181504 22 238 19.3 32.2 0.00 0.00 0.00 55 1001.5
20260504181004 22 203 12.9 35.4 0.00 0.00 0.00 55 1001.6
20260504180004 22 222 16.1 29.0 0.00 0.00 0.00 54 1001.7
20260504175504 22 211 12.9 24.1 0.00 0.00 0.00 55 1001.7
20260504175004 22 221 12.9 24.1 0.00 0.00 0.00 54 1001.8
20260504174504 21 223 12.9 29.0 0.00 0.00 0.00 53 1001.9
20260504174004 22 226 12.9 29.0 0.00 0.00 0.00 53 1002.1
20260504173504 21 201 14.5 29.0 0.00 0.00 0.00 52 1002.2
20260504173003 22 191 14.5 29.0 0.00 0.00 0.00 51 1002.2
20260504172504 22 180 9.7 29.0 0.00 0.00 0.00 51 1002.3
20260504171504 22 221 16.1 32.2 0.00 0.00 0.00 49 1002.5
20260504171004 21 213 14.5 32.2 0.00 0.00 0.00 49 1002.7
20260504170504 21 220 11.3 22.5 0.00 0.00 0.00 47 1002.7
20260504150506 17 232 12.9 20.9 0.00 0.00 0.00 61 1004.0
20260504141006 15 219 9.7 19.3 0.00 0.00 0.00 67 1004.4
20260504140506 15 230 8.0 19.3 0.00 0.00 0.00 67 1004.4
20260504130507 12 215 11.3 20.9 0.00 0.00 0.00 72 1005.0
20260504110505 9 218 8.0 14.5 0.00 0.00 0.00 78 1005.1
20260504100506 8 223 3.2 9.7 0.00 0.00 0.00 78 1005.0
20260504082005 8 187 3.2 9.7 0.00 0.00 0.00 79 1005.3
20260504081505 8 190 3.2 9.7 0.00 0.00 0.00 78 1005.5
20260504080505 8 202 1.6 11.3 0.00 0.00 0.00 78 1005.6
20260504050505 9 218 3.2 9.7 0.00 0.00 0.00 76 1008.0
20260504050005 9 181 3.2 9.7 0.00 0.00 0.00 76 1008.1
20260504045505 9 197 4.8 9.7 0.00 0.00 0.00 76 1008.0
20260504045005 9 214 3.2 9.7 0.00 0.00 0.00 76 1008.0
20260504044005 9 192 1.6 8.0 0.00 0.00 0.00 76 1008.1
20260504043504 9 196 3.2 11.3 0.00 0.00 0.00 76 1008.1
20260504042505 9 203 6.4 12.9 0.00 0.00 0.00 76 1008.1
20260504042005 9 219 3.2 9.7 0.00 0.00 0.00 76 1008.1
20260504041505 9 191 6.4 11.3 0.00 0.00 0.00 75 1008.1
20260504041005 9 172 3.2 14.5 0.00 0.00 0.00 75 1008.2
20260504040505 10 201 3.2 11.3 0.00 0.00 0.00 74 1008.2
20260504040005 10 191 4.8 19.3 0.00 0.00 0.00 74 1008.3
20260504035505 10 197 4.8 12.9 0.00 0.00 0.00 74 1008.4
20260504035004 10 195 8.0 14.5 0.00 0.00 0.00 74 1008.4
20260504034505 10 180 3.2 12.9 0.00 0.00 0.00 74 1008.5
20260504034004 10 184 8.0 14.5 0.00 0.00 0.00 74 1008.5
20260504033505 10 205 3.2 12.9 0.00 0.00 0.00 74 1008.6
20260504032505 10 204 6.4 11.3 0.00 0.00 0.00 75 1008.7
20260504032004 9 166 4.8 16.1 0.00 0.00 0.00 75 1008.6
20260504031505 9 140 3.2 14.5 0.00 0.00 0.00 75 1008.7
20260504030505 9 170 4.8 14.5 0.00 0.00 0.00 75 1008.7
20260504030005 9 159 4.8 14.5 0.00 0.00 0.00 75 1008.9
20260504025505 9 159 3.2 11.3 0.00 0.00 0.00 75 1008.9
20260504025005 9 154 4.8 12.9 0.00 0.00 0.00 75 1008.9
20260504024004 9 172 1.6 8.0 0.00 0.00 0.00 75 1009.1
20260504023505 9 187 3.2 12.9 0.00 0.00 0.00 75 1009.1
20260504022505 9 154 4.8 11.3 0.00 0.00 0.00 74 1009.2
20260504022005 9 168 4.8 12.9 0.00 0.00 0.00 74 1009.2
20260504021005 9 163 3.2 12.9 0.00 0.00 0.00 74 1009.2
20260504020506 9 156 1.6 12.9 0.00 0.00 0.00 74 1009.2
20260504015005 9 139 3.2 11.3 0.00 0.00 0.00 73 1009.2
20260504014005 9 155 4.8 11.3 0.00 0.00 0.00 72 1009.2
20260504013505 9 149 8.0 12.9 0.00 0.00 0.00 72 1009.2
20260504013005 10 153 3.2 12.9 0.00 0.00 0.00 72 1009.2
20260504012504 10 178 1.6 11.3 0.00 0.00 0.00 71 1009.2
20260504011505 10 153 6.4 12.9 0.00 0.00 0.00 71 1009.2
20260504011005 10 147 4.8 11.3 0.00 0.00 0.00 71 1009.2